Location: Cheyres
(46.8153°N, 6.7877°E)
Time: 22:09:05
(UTC+00:00)

PicSat - Pass Details

Date: 05 July 2022
Orbit: 446 x 455 km, 97.4° (Epoch: 13 August)

Event Time Altitude Azimuth Distance (km) Brightness Sun altitude
Exits shadow 20:30:20 - 99° (E) 1,878 ? -8.6°
Reaches altitude 10° 20:31:39 10° 81° (E) 1,614 ? -8.8°
Maximum altitude 20:32:47 11° 62° (ENE) 1,535 ? -8.9°
Drops below altitude 10° 20:33:56 10° 42° (NE) 1,620 ? -9.1°
Sets 20:37:13 0° 8° (N) 2,506 ? -9.4°
